Previsão horária em Cayo Coco

Hoje, 2 Agosto, Segunda-feira

Tempo Temperatura Precipitação Vento Pressão Humidade
00:00 +29°C° 0 mm 5 m/s 762 mmHg 86%
01:00 +28°C° 0 mm 6 m/s 762 mmHg 87%
02:00 +28°C° 0 mm 5 m/s 762 mmHg 88%
03:00 +28°C° 0 mm 5 m/s 762 mmHg 89%
04:00 +28°C° 0 mm 4 m/s 761 mmHg 90%
05:00 +28°C° 0 mm 4 m/s 762 mmHg 89%
06:00 +29°C° 0 mm 4 m/s 762 mmHg 87%
07:00 +29°C° 0 mm 4 m/s 762 mmHg 86%
08:00 +30°C° 0.4 mm 4 m/s 763 mmHg 81%
09:00 +32°C° 0.4 mm 4 m/s 763 mmHg 76%
10:00 +33°C° 0.4 mm 4 m/s 763 mmHg 71%
11:00 +34°C° 0.1 mm 4 m/s 763 mmHg 69%
12:00 +34°C° 0.1 mm 4 m/s 762 mmHg 67%
13:00 +34°C° 0.1 mm 5 m/s 762 mmHg 66%
14:00 +34°C° 0 mm 5 m/s 762 mmHg 67%
15:00 +34°C° 0 mm 5 m/s 762 mmHg 68%
16:00 +34°C° 0 mm 6 m/s 761 mmHg 70%
17:00 +33°C° 0 mm 6 m/s 761 mmHg 73%
18:00 +32°C° 0 mm 6 m/s 761 mmHg 76%
19:00 +30°C° 0 mm 6 m/s 761 mmHg 78%
20:00 +29°C° 0 mm 6 m/s 762 mmHg 80%
21:00 +29°C° 0 mm 6 m/s 762 mmHg 81%
22:00 +29°C° 0 mm 6 m/s 762 mmHg 83%
23:00 +29°C° 0 mm 5 m/s 762 mmHg 83%

Amanhã, 3 Agosto, Terça-feira

Tempo Temperatura Precipitação Vento Pressão Humidade
00:00 +28°C° 0 mm 5 m/s 762 mmHg 83%
01:00 +28°C° 0 mm 5 m/s 761 mmHg 84%
02:00 +28°C° 0.1 mm 5 m/s 761 mmHg 85%
03:00 +28°C° 0.1 mm 6 m/s 761 mmHg 86%
04:00 +28°C° 0.1 mm 6 m/s 761 mmHg 88%
05:00 +28°C° 0 mm 6 m/s 761 mmHg 86%
06:00 +29°C° 0 mm 6 m/s 761 mmHg 84%
07:00 +29°C° 0 mm 6 m/s 762 mmHg 83%
08:00 +30°C° 0 mm 6 m/s 762 mmHg 75%
09:00 +32°C° 0 mm 6 m/s 762 mmHg 68%
10:00 +33°C° 0 mm 6 m/s 762 mmHg 61%
11:00 +34°C° 0 mm 6 m/s 762 mmHg 59%
12:00 +34°C° 0 mm 6 m/s 762 mmHg 57%
13:00 +35°C° 0 mm 5 m/s 761 mmHg 55%
14:00 +34°C° 0 mm 6 m/s 761 mmHg 59%
15:00 +34°C° 0 mm 6 m/s 761 mmHg 62%
16:00 +33°C° 0 mm 6 m/s 761 mmHg 66%
17:00 +33°C° 0 mm 6 m/s 761 mmHg 69%
18:00 +32°C° 0 mm 6 m/s 761 mmHg 72%
19:00 +30°C° 0 mm 6 m/s 761 mmHg 76%
20:00 +30°C° 0 mm 6 m/s 761 mmHg 77%
21:00 +29°C° 0 mm 6 m/s 761 mmHg 78%
22:00 +29°C° 0 mm 6 m/s 762 mmHg 79%
23:00 +29°C° 0 mm 6 m/s 761 mmHg 81%

Depois de amanhã, 4 Agosto, Quarta-feira

Tempo Temperatura Precipitação Vento Pressão Humidade
00:00 +28°C° 0 mm 6 m/s 761 mmHg 83%
01:00 +28°C° 0 mm 6 m/s 761 mmHg 85%
02:00 +28°C° 0.1 mm 6 m/s 761 mmHg 86%
03:00 +27°C° 0.1 mm 5 m/s 761 mmHg 87%
04:00 +27°C° 0.1 mm 5 m/s 761 mmHg 88%
05:00 +28°C° 0.1 mm 5 m/s 761 mmHg 86%
06:00 +28°C° 0.1 mm 4 m/s 761 mmHg 84%
07:00 +28°C° 0.1 mm 4 m/s 761 mmHg 83%
08:00 +30°C° 0.2 mm 4 m/s 761 mmHg 77%
09:00 +32°C° 0.2 mm 5 m/s 762 mmHg 70%
10:00 +33°C° 0.2 mm 5 m/s 762 mmHg 64%
11:00 +34°C° 0 mm 5 m/s 762 mmHg 61%
12:00 +35°C° 0 mm 5 m/s 762 mmHg 58%
13:00 +35°C° 0 mm 5 m/s 762 mmHg 55%
14:00 +35°C° 0.1 mm 5 m/s 761 mmHg 58%
15:00 +34°C° 0.1 mm 5 m/s 761 mmHg 61%
16:00 +34°C° 0.1 mm 6 m/s 761 mmHg 65%
17:00 +32°C° 0.8 mm 5 m/s 761 mmHg 70%
18:00 +30°C° 0.8 mm 5 m/s 761 mmHg 76%
19:00 +29°C° 0.8 mm 4 m/s 761 mmHg 81%
20:00 +29°C° 0.4 mm 4 m/s 762 mmHg 82%
21:00 +28°C° 0.4 mm 4 m/s 762 mmHg 83%
22:00 +28°C° 0.4 mm 3 m/s 763 mmHg 84%
23:00 +28°C° 0.7 mm 3 m/s 763 mmHg 84%

5 Agosto, Quinta-feira

Tempo Temperatura Precipitação Vento Pressão Humidade
00:00 +28°C° 0.7 mm 3 m/s 763 mmHg 85%
01:00 +28°C° 0.7 mm 3 m/s 762 mmHg 85%
02:00 +27°C° 0.1 mm 3 m/s 762 mmHg 86%
03:00 +27°C° 0.1 mm 3 m/s 762 mmHg 86%
04:00 +27°C° 0.1 mm 3 m/s 762 mmHg 87%
05:00 +27°C° 0 mm 3 m/s 762 mmHg 86%
06:00 +27°C° 0 mm 3 m/s 763 mmHg 84%
07:00 +28°C° 0 mm 3 m/s 763 mmHg 83%
08:00 +29°C° 0 mm 3 m/s 763 mmHg 76%
09:00 +31°C° 0 mm 3 m/s 763 mmHg 69%
10:00 +33°C° 0 mm 3 m/s 763 mmHg 62%
11:00 +34°C° 0 mm 3 m/s 763 mmHg 60%
12:00 +34°C° 0 mm 4 m/s 763 mmHg 58%
13:00 +35°C° 0 mm 4 m/s 763 mmHg 56%
14:00 +35°C° 0.1 mm 5 m/s 762 mmHg 58%
15:00 +34°C° 0.1 mm 5 m/s 762 mmHg 61%
16:00 +34°C° 0.1 mm 5 m/s 762 mmHg 63%
17:00 +33°C° 0.2 mm 6 m/s 762 mmHg 68%
18:00 +32°C° 0.2 mm 6 m/s 762 mmHg 73%
19:00 +30°C° 0.2 mm 6 m/s 763 mmHg 78%
20:00 +29°C° 0.2 mm 6 m/s 763 mmHg 81%
21:00 +29°C° 0.2 mm 6 m/s 763 mmHg 83%
22:00 +28°C° 0.2 mm 5 m/s 763 mmHg 86%
23:00 +28°C° 0.3 mm 5 m/s 763 mmHg 87%

6 Agosto, Sexta-feira

Tempo Temperatura Precipitação Vento Pressão Humidade
00:00 +28°C° 0.3 mm 5 m/s 763 mmHg 88%
01:00 +28°C° 0.3 mm 5 m/s 763 mmHg 88%
02:00 +28°C° 0.1 mm 5 m/s 763 mmHg 89%
03:00 +28°C° 0.1 mm 5 m/s 763 mmHg 89%
04:00 +28°C° 0.1 mm 5 m/s 762 mmHg 89%
05:00 +28°C° 0.1 mm 5 m/s 763 mmHg 88%
06:00 +28°C° 0.1 mm 5 m/s 763 mmHg 88%
07:00 +28°C° 0.1 mm 5 m/s 763 mmHg 87%
08:00 +30°C° 0.1 mm 6 m/s 763 mmHg 80%
09:00 +32°C° 0.1 mm 6 m/s 763 mmHg 73%
10:00 +33°C° 0.1 mm 6 m/s 763 mmHg 66%
11:00 +34°C° 0 mm 6 m/s 763 mmHg 63%
12:00 +35°C° 0 mm 6 m/s 763 mmHg 60%
13:00 +35°C° 0 mm 6 m/s 763 mmHg 58%
14:00 +35°C° 0.1 mm 6 m/s 762 mmHg 59%
15:00 +34°C° 0.1 mm 7 m/s 762 mmHg 61%
16:00 +34°C° 0.1 mm 7 m/s 762 mmHg 63%
17:00 +33°C° 0 mm 7 m/s 762 mmHg 68%
18:00 +32°C° 0 mm 7 m/s 762 mmHg 72%
19:00 +30°C° 0 mm 7 m/s 762 mmHg 77%
20:00 +30°C° 0.1 mm 6 m/s 763 mmHg 78%
21:00 +29°C° 0.1 mm 6 m/s 763 mmHg 80%
22:00 +29°C° 0.1 mm 6 m/s 763 mmHg 82%
23:00 +29°C° 0.2 mm 6 m/s 763 mmHg 84%

7 Agosto, Sábado

Tempo Temperatura Precipitação Vento Pressão Humidade
00:00 +28°C° 0.2 mm 6 m/s 763 mmHg 86%
01:00 +28°C° 0.2 mm 7 m/s 763 mmHg 88%
02:00 +28°C° 0.1 mm 7 m/s 762 mmHg 88%
03:00 +28°C° 0.1 mm 7 m/s 762 mmHg 89%
04:00 +28°C° 0.1 mm 7 m/s 762 mmHg 89%
05:00 +28°C° 0.1 mm 7 m/s 762 mmHg 88%
06:00 +28°C° 0.1 mm 7 m/s 762 mmHg 88%
07:00 +29°C° 0.1 mm 7 m/s 763 mmHg 87%
08:00 +30°C° 0.4 mm 7 m/s 763 mmHg 80%
09:00 +32°C° 0.4 mm 7 m/s 763 mmHg 73%
10:00 +34°C° 0.4 mm 6 m/s 763 mmHg 66%
11:00 +34°C° 0.1 mm 6 m/s 763 mmHg 65%
12:00 +34°C° 0.1 mm 7 m/s 763 mmHg 63%
13:00 +35°C° 0.1 mm 7 m/s 763 mmHg 62%
14:00 +34°C° 0.2 mm 7 m/s 762 mmHg 63%
15:00 +34°C° 0.2 mm 7 m/s 762 mmHg 63%
16:00 +34°C° 0.2 mm 7 m/s 762 mmHg 64%
17:00 +33°C° 0.3 mm 7 m/s 762 mmHg 69%
18:00 +32°C° 0.3 mm 8 m/s 762 mmHg 73%
19:00 +31°C° 0.3 mm 8 m/s 762 mmHg 78%
20:00 +29°C° 0.4 mm 7 m/s 763 mmHg 80%
21:00 +29°C° 0.4 mm 7 m/s 763 mmHg 82%
22:00 +28°C° 0.4 mm 7 m/s 763 mmHg 83%
23:00 +28°C° 0 mm 7 m/s 763 mmHg 83%
Mostrar mais

Necessitamos do seu Consentimento

A Meteoprog e os seus Fornecedores de Serviços podem armazenar e aceder a dados pessoais como cookies, identificadores do dispositivo ou outras tecnologias semelhantes existentes no seu dispositivo e processar estes dados para personalizar conteúdos e anúncios, assim como funcionalidades nas redes sociais e análise de tráfego.

  • Armazenar e/ou aceder a informações no seu dispositivo

    Os cookies, identificadores do dispositivo ou outras informações podem ser armazenados ou acedidos no seu dispositivo, para os fins acima indicados.

  • Anúncios e conteúdos personalizados, medição de anúncios e conteúdos, dados sobre o público-alvo e desenvolvimento de produtos

    Os anúncios e os conteúdos podem ser personalizados com base num perfil. Podem ser adicionados dados adicionais para uma maior personalização dos anúncios e dos conteúdos. A eficácia dos anúncios e dos conteúdos pode ser medida. Podem ser obtidas informações sobre o público que visualizou os anúncios e os conteúdos. Estes dados podem ser usados para desenvolver ou melhorar sistemas, softwares ou a experiência do utilizador.

Ao clicar em "Eu concordo”, permitirá o uso de cookies, identificadores do dispositivo e web beacons mencionados ou outras tecnologias semelhantes. As configurações do navegador do seu dispositivo podem ser alteradas.

Para certos fins, podem ser invocados interesses legítimos ao invés de consentimento. Pode ler mais informação sobre este assunto na nossa Política de Privacidade e Cookies.